Weather History for Pittsburgh, PA

Change the Weather History Date:

Friday, August 15, 2014

  Actual Average Record
Temperature  
Mean Temperature 61 °F 72 °F  
Max Temperature 71 °F 82 °F 96 °F (1995)
Min Temperature 50 °F 62 °F 43 °F (1964)
Degree Days  
Heating Degree Days 4 0  
Month to date heating degree days 8 0  
Since 1 June heating degree days 28 42  
Since 1 July heating degree days 19 4  
Cooling Degree Days 0 7  
Month to date cooling degree days 66 109  
Year to date cooling degree days 513 552  
Since 1 June cooling degree days 439 500  
Growing Degree Days 10 (Base 50)    
Moisture  
Dew Point 48 °F    
Average Humidity 65    
Maximum Humidity 86    
Minimum Humidity 44    
Precipitation  
Precipitation 0.00 in 0.11 in 2.03 in (1941)
Month to date precipitation 2.06 1.75  
Year to date precipitation 26.39 24.98  
Snow  
Snow 0.00 in 0.00 in 0.00 in (2002)
Month to date snowfall 0.0 0.0  
Since 1 July snowfall 0.0 0.0  
Snow Depth 0.00 in    
Sea Level Pressure  
Sea Level Pressure 30.04 in    
Wind  
Wind Speed 6 mph (West)    
Max Wind Speed 20 mph    
Max Gust Speed 25 mph    
Visibility 10 miles    
Events      
T = Trace of Precipitation, MM = Missing Value Source: NWS Daily Summary

Daily Weather History Graph

Daily Weather History Graph

Search for Another Location

Airport:

Trip Planner

Search our weather history database for the weather conditions in past years. The results will help you decide how hot, cold, wet, or windy it might be!

Date:

Astronomy

Aug. 15, 2014 Rise Set
Actual Time 6:31 AM EDT 8:18 PM EDT
Civil Twilight 6:02 AM EDT 8:47 PM EDT
Nautical Twilight 5:26 AM EDT 9:22 PM EDT
Astronomical Twilight 4:48 AM EDT 10:00 PM EDT
Moon 11:18 PM EDT (8/15) 12:14 PM EDT (8/15)
Length of Visible Light 14h 45m
Length of Day
13h 46m
Waning Gibbous, 69% of the Moon is Illuminated
Aug 15
Waning Gibbous
Aug 17
Last Quarter
Aug 25
New
Sep 2
First Quarter
Sep 8
Full

Hourly Weather History & Observations

Time (EDT) Temp. Dew Point Humidity Pressure Visibility Wind Dir Wind Speed Gust Speed Precip Events Conditions
12:51 AM 53.1 °F 46.0 °F 77% 30.03 in 10.0 mi Calm Calm - N/A   Partly Cloudy
1:51 AM 51.1 °F 46.9 °F 86% 30.02 in 10.0 mi Calm Calm - N/A   Scattered Clouds
2:51 AM 51.8 °F 46.4 °F 82% 30.00 in 10.0 mi Calm Calm - N/A   Scattered Clouds
3:51 AM 52.0 °F 46.0 °F 80% 30.01 in 10.0 mi Calm Calm - N/A   Mostly Cloudy
4:51 AM 51.1 °F 46.0 °F 83% 30.02 in 10.0 mi Calm Calm - N/A   Overcast
5:51 AM 51.1 °F 46.0 °F 83% 30.03 in 10.0 mi Calm Calm - N/A   Scattered Clouds
6:51 AM 50.0 °F 46.0 °F 86% 30.04 in 10.0 mi Variable 3.5 mph - N/A   Scattered Clouds
7:51 AM 54.0 °F 48.0 °F 80% 30.06 in 10.0 mi West 4.6 mph - N/A   Scattered Clouds
8:51 AM 57.0 °F 48.0 °F 72% 30.07 in 10.0 mi West 9.2 mph - N/A   Scattered Clouds
9:51 AM 60.8 °F 48.2 °F 63% 30.05 in 10.0 mi West 10.4 mph - N/A   Scattered Clouds
10:51 AM 64.4 °F 51.8 °F 64% 30.05 in 10.0 mi WNW 10.4 mph - N/A   Scattered Clouds
11:51 AM 66.0 °F 46.9 °F 50% 30.07 in 10.0 mi WNW 12.7 mph - N/A   Mostly Cloudy
12:51 PM 68.0 °F 46.0 °F 45% 30.06 in 10.0 mi WNW 11.5 mph 20.7 mph N/A   Overcast
1:51 PM 69.8 °F 46.4 °F 43% 30.04 in 10.0 mi WNW 11.5 mph - N/A   Overcast
2:51 PM 68.0 °F 46.0 °F 45% 30.05 in 10.0 mi West 12.7 mph 16.1 mph N/A   Overcast
3:51 PM 69.1 °F 46.0 °F 44% 30.04 in 10.0 mi West 9.2 mph - N/A   Mostly Cloudy
4:51 PM 69.8 °F 48.2 °F 46% 30.02 in 10.0 mi West 10.4 mph 19.6 mph N/A   Mostly Cloudy
5:51 PM 70.0 °F 46.9 °F 44% 30.02 in 10.0 mi WNW 11.5 mph - N/A   Mostly Cloudy
6:51 PM 69.1 °F 48.9 °F 49% 30.02 in 10.0 mi West 8.1 mph - N/A   Mostly Cloudy
7:51 PM 66.0 °F 48.9 °F 54% 30.03 in 10.0 mi West 5.8 mph - N/A   Mostly Cloudy
8:51 PM 63.0 °F 51.1 °F 65% 30.03 in 10.0 mi West 3.5 mph - N/A   Scattered Clouds
9:51 PM 60.1 °F 52.0 °F 75% 30.05 in 10.0 mi Calm Calm - N/A   Scattered Clouds
10:51 PM 57.2 °F 51.8 °F 82% 30.03 in 10.0 mi Calm Calm - N/A   Partly Cloudy
11:51 PM 55.4 °F 51.8 °F 88% 30.04 in 10.0 mi Calm Calm - N/A   Partly Cloudy